Location: ActonStarParty
(42.4766°N, 71.4538°W)
Time: 05:08:50
(UTC-04:00)

ATLAS 5 CENTAUR R/B - Visible Passes

Search period start: 02 September 2014 00:00
Search period end: 12 September 2014 00:00
Orbit: 325 x 15030 km, 60.8° (Epoch: 03 February)

Date Brightness Start Highest point End Pass type
(mag) Time Alt. Az. Time Alt. Az. Time Alt. Az.
02 Sep 9.0 01:16:37 10° SE 02:47:57 39° E 03:31:09 10° NE visible
02 Sep 7.8 05:37:13 10° SSW 07:49:27 71° NW 08:20:35 10° NE visible
03 Sep 9.1 00:35:04 10° ESE 01:40:40 25° E 02:17:07 10° NE visible
03 Sep 8.2 04:22:40 10° SSW 06:32:13 86° WNW 07:10:20 10° NE visible
04 Sep 9.2 00:11:42 10° E 00:35:43 13° ENE 00:54:10 10° NE visible
04 Sep 8.4 03:13:28 10° S 05:16:43 78° ESE 05:59:56 10° NE visible
05 Sep 8.6 02:09:32 10° SSE 04:03:28 62° ESE 04:49:10 10° NE visible
06 Sep 8.8 01:12:22 10° SE 02:52:36 46° E 03:37:41 10° NE visible
06 Sep 7.7 05:46:37 10° SW 07:58:24 65° NW 08:26:16 10° NE visible
07 Sep 9.0 00:24:51 10° ESE 01:44:06 31° E 02:24:45 10° NE visible
07 Sep 8.1 04:28:54 10° SSW 06:40:21 79° NW 07:15:49 10° NE visible
07 Sep 9.0 23:50:57 10° E 00:37:55 18° ENE 01:07:45 10° NE visible
08 Sep 8.3 03:17:09 10° S 05:23:38 86° ESE 06:05:16 10° NE visible
09 Sep 8.5 02:10:29 10° SSE 04:09:05 69° ESE 04:54:28 10° NE visible
10 Sep 8.7 01:09:42 10° SSE 02:56:57 53° E 03:43:09 10° NE visible
10 Sep 7.6 05:56:56 10° SW 08:06:34 60° NNW 08:31:11 10° NE visible
11 Sep 8.8 00:17:08 10° SE 01:47:13 38° E 02:30:48 10° NE visible
11 Sep 8.0 04:35:29 10° SSW 06:48:02 72° NW 07:20:32 10° NE visible
11 Sep 9.2 23:36:13 10° ESE 00:00:00 17° E 00:00:00 17° E visible
